Simultaneous Nadir Overpasses (SNOs) Predictions

Prediction of SNOs near US between AQUA and NPP Satellite Orbit:

Table of predicted SNOs near US for the next 10.0 days since TLE Epoch: 8/10/2019
Index Date (AQUA) Time (AQUA) AQUA Lat,Lon Date (NPP) Time (NPP) NPP Lat,Lon Distance(km) Time Diff (sec)
1 08/10/2019 09:23:23 23.55,-113.39 08/10/2019 09:16:02 23.67,-113.86 50.18 441
2 08/13/2019 06:30:11 46.30, -65.04 08/13/2019 06:30:52 46.69, -67.08 161.83 41
3 08/13/2019 08:08:03 49.92, -88.33 08/13/2019 08:11:17 50.43, -90.85 188.72 194
4 08/13/2019 09:46:56 49.92,-113.05 08/13/2019 09:52:45 50.54,-116.18 233.10 349
5 08/15/2019 19:06:11 49.98, -92.51 08/15/2019 19:01:34 49.64, -94.45 144.08 277
6 08/15/2019 20:45:04 49.97,-117.23 08/15/2019 20:43:02 49.53,-119.78 189.38 122
7 08/18/2019 08:34:52 20.05,-101.85 08/18/2019 08:26:32 19.31,-102.26 92.50 500
8 08/18/2019 10:11:28 28.31,-124.57 08/18/2019 10:05:26 28.45,-125.30 73.09 362




NCC Satellite Simultaneous Nadir Overpasses (SNOs) Prediction Service
